CW6963 Weather Reports


Display with metric or nautical units.
time (UTC)temp
F
wind
direction
speed
MPH
gust
MPH
rain 1hr
in
rain 24hr
in
rain mn
in
humidity
%
barometer
mb
20260504081543 42 235 0.0 1.0 0.00 0.00 0.00 71 1014.6
20260504044525 48 252 0.0 2.0 0.00 0.00 0.00 59 1014.5
20260504043056 49 241 1.0 5.0 0.00 0.00 0.00 57 1014.5
20260504041525 49 249 1.0 5.0 0.00 0.00 0.00 56 1014.3
20260504034526 49 229 1.0 7.0 0.00 0.00 0.00 55 1013.9
20260504033028 49 241 2.0 5.0 0.00 0.00 0.00 56 1013.9
20260504031534 48 253 1.0 4.0 0.00 0.00 0.00 57 1013.8
20260504030032 49 238 0.0 2.0 0.00 0.00 0.00 57 1013.8
20260504024536 49 258 0.0 2.0 0.00 0.00 0.00 55 1013.7
20260504023031 49 258 0.0 5.0 0.00 0.00 0.00 55 1013.8
20260504021533 49 233 1.0 2.0 0.00 0.00 0.00 56 1013.7
20260504020036 49 239 0.0 1.0 0.00 0.00 0.00 57 1013.7
20260504014538 50 239 0.0 2.0 0.00 0.00 0.00 53 1013.7
20260504013042 52 239 1.0 4.0 0.00 0.00 0.00 51 1013.6
20260504011548 52 232 1.0 4.0 0.00 0.00 0.00 49 1013.5
20260504010047 53 222 2.0 5.0 0.00 0.00 0.00 48 1013.4
20260504004616 53 233 0.0 2.0 0.00 0.00 0.00 48 1013.1
20260504003053 54 220 1.0 7.0 0.00 0.00 0.00 47 1012.9
20260504001558 55 236 1.0 2.0 0.00 0.00 0.00 46 1012.7
20260504000041 56 274 1.0 3.0 0.00 0.00 0.00 44 1012.5
20260503234543 57 277 1.0 7.0 0.00 0.00 0.00 43 1012.4
20260503233043 57 293 1.0 6.0 0.00 0.00 0.00 41 1012.3
20260503231548 58 212 3.0 12.0 0.00 0.00 0.00 40 1012.2
20260503230025 58 264 4.0 9.0 0.00 0.00 0.00 39 1012.3
20260503224542 59 279 5.0 10.0 0.00 0.00 0.00 38 1012.2
20260503223027 59 300 4.0 10.0 0.00 0.00 0.00 39 1012.1
20260503221533 59 320 5.0 13.0 0.00 0.00 0.00 38 1012.2
20260503220047 58 314 3.0 12.0 0.00 0.00 0.00 39 1012.1
20260503214541 59 195 4.0 14.0 0.00 0.00 0.00 38 1012.0
20260503213044 59 312 5.0 18.0 0.00 0.00 0.00 37 1012.0
20260503211544 59 320 5.0 14.0 0.00 0.00 0.00 38 1011.8
20260503210046 59 282 7.0 16.0 0.00 0.00 0.00 36 1011.9
20260503204530 58 289 4.0 11.0 0.00 0.00 0.00 39 1012.0
20260503203046 58 332 7.0 14.0 0.00 0.00 0.00 38 1012.1
20260503201543 57 341 5.0 16.0 0.00 0.00 0.00 39 1012.2
20260503200045 57 345 9.0 15.0 0.00 0.00 0.00 40 1012.4
20260503194546 56 360 5.0 12.0 0.00 0.00 0.00 43 1012.5
20260503193049 56 340 8.0 16.0 0.00 0.00 0.00 41 1012.7
20260503191540 56 335 8.0 13.0 0.00 0.00 0.00 40 1012.8
20260503190041 56 329 8.0 19.0 0.00 0.00 0.00 39 1013.0
20260503184538 55 349 8.0 15.0 0.00 0.00 0.00 41 1013.1
20260503183036 55 304 7.0 13.0 0.00 0.00 0.00 43 1013.2
20260503181618 54 301 8.0 16.0 0.00 0.00 0.00 42 1013.3
20260503180057 54 274 8.0 16.0 0.00 0.00 0.00 40 1013.4
20260503174554 54 360 6.0 16.0 0.00 0.00 0.00 44 1013.2
20260503173052 52 299 6.0 14.0 0.00 0.00 0.00 43 1013.6
20260503171551 52 348 5.0 13.0 0.00 0.00 0.00 45 1013.6